Wind_Speed
10 9 9 9 9 9 9 9 9 8 8 7 7 8 8 7 6 5 5 5 4 4 4 3 4 4 4 4 5 6 6 8 8 13 14 8 9 13 10 6 7 8 8 8 7 7 8 7 8 7 7 12 14 14 14 13 16 12 4 3 4 5 6 7 7 5 2 1 4 7 9 4 3 6 6 4 3 3 20 25 20 22 24 25 25 33 33 29
10 9 9 9 9 9 9 9 9 8 8 7 7 7 7 7 6 5 4 4 3 3 3 3 3 3 4 4 6 6 7 8 11 15 10 3 11 14 12 10 11 9 8 8 9 10 10 10 8 6 11 14 13 15 13 11 14 9 2 4 5 6 9 11 10 9 4 1 2 5 6 2 3 6 4 2 4 6 18 19 25 30 27 29 32 34 32 31
9 9 9 9 8 8 8 8 9 9 8 8 7 7 7 6 6 5 4 4 3 3 3 3 3 3 4 5 6 7 8 9 12 12 4 2 10 11 10 12 12 12 11 10 11 11 9 11 10 10 15 15 14 16 13 11 11 11 7 3 5 6 9 15 16 14 8 4 5 6 7 5 7 8 0 0 5 2 11 15 20 27 30 33 33 34 33 30
9 9 9 9 8 8 8 8 9 9 9 9 8 7 7 6 6 6 5 4 3 3 4 4 3 3 4 5 5 6 8 8 7 4 2 2 2 4 7 10 11 12 11 10 12 13 10 14 14 14 16 12 16 17 12 12 10 9 9 5 7 8 8 17 17 14 12 11 9 7 8 6 8 6 1 2 4 4 10 23 25 29 34 35 35 35 33 29
8 9 9 9 8 7 7 8 9 9 9 10 9 8 7 6 6 6 5 4 3 4 4 4 3 3 4 4 5 6 7 4 2 2 3 6 6 3 3 6 10 10 11 12 13 15 13 15 16 17 15 9 12 12 11 17 15 6 8 10 12 12 7 17 16 9 11 13 12 8 6 7 8 3 3 3 2 1 13 29 32 36 37 37 37 35 33 31
8 8 8 8 8 7 7 8 9 9 10 11 10 9 7 6 6 6 6 5 4 4 5 4 3 4 3 3 6 5 3 0 2 5 6 8 8 5 2 5 9 10 12 13 14 13 11 13 14 14 10 6 7 7 11 19 17 6 6 11 15 16 9 15 18 5 5 8 9 8 9 10 8 5 9 5 9 16 27 33 32 34 35 35 36 35 33 32
8 8 8 8 7 7 7 8 9 9 10 11 11 10 8 7 7 6 6 5 5 5 4 4 4 4 2 4 5 5 7 6 4 5 7 9 8 5 3 6 9 12 14 14 15 12 10 14 14 13 7 5 7 8 14 19 16 9 5 8 14 18 13 16 19 4 6 4 5 10 12 11 7 5 8 5 24 32 35 32 31 32 31 33 34 34 32 31
8 8 8 7 7 7 7 8 8 9 10 10 11 11 9 8 7 6 6 5 5 5 4 4 4 3 2 3 5 7 10 9 4 4 8 10 8 5 5 8 11 14 15 17 16 12 12 15 14 13 7 5 9 10 15 16 11 10 8 9 13 16 17 19 19 8 3 3 8 12 9 11 12 9 4 16 33 38 36 31 32 31 29 30 30 31 30 28
9 9 8 8 8 7 7 7 8 8 9 10 11 10 9 8 7 6 6 5 4 5 4 4 4 3 3 2 5 6 6 6 3 7 11 9 6 6 7 10 13 15 17 16 13 13 15 15 14 14 10 9 13 12 13 10 5 10 11 9 9 11 19 20 13 9 8 8 10 10 7 13 19 14 4 23 37 37 37 33 31 30 29 28 27 29 28 27
9 9 9 8 8 8 7 7 7 8 8 9 10 10 9 8 8 6 6 5 4 4 3 3 3 2 3 3 3 2 4 6 6 9 11 5 4 6 9 10 13 16 18 12 8 11 13 14 15 16 14 12 12 10 12 9 5 8 8 7 8 12 19 17 8 8 13 14 14 9 7 15 18 10 3 23 36 34 35 34 31 30 27 27 27 27 25 26
9 9 9 9 8 8 7 7 7 7 8 8 9 9 9 8 8 7 5 5 3 4 3 3 2 2 5 4 3 2 3 7 9 11 8 3 4 7 11 13 14 17 16 11 8 9 12 15 14 13 9 5 7 10 13 13 12 13 8 5 8 11 14 12 6 11 13 10 16 14 7 12 10 7 6 19 29 30 34 33 30 28 26 27 26 25 25 25
9 9 9 9 8 8 7 7 7 7 7 7 8 9 8 8 8 7 6 5 4 3 3 3 3 4 6 7 10 6 1 4 9 12 5 5 7 9 11 12 12 12 10 11 11 9 12 16 12 8 6 7 5 6 9 14 16 16 8 2 6 8 10 10 8 13 11 5 15 14 5 8 6 7 14 19 18 22 33 32 29 28 26 28 27 26 26 23
9 9 9 8 8 8 8 7 7 7 7 7 7 7 8 7 7 7 6 6 4 3 4 4 4 6 7 8 11 5 2 1 7 9 3 6 8 7 5 6 7 7 9 14 14 10 11 14 10 8 12 13 7 6 12 18 13 12 6 1 3 6 7 10 10 14 11 7 13 9 1 7 7 8 19 20 11 16 27 30 29 28 27 28 27 28 27 23
10 9 9 8 8 8 8 8 7 7 6 7 7 7 7 7 7 7 6 6 5 4 5 4 5 7 7 7 6 3 4 3 7 10 5 6 8 4 2 6 10 11 11 14 13 11 6 7 7 10 14 12 10 11 13 14 7 4 3 2 3 4 6 8 10 13 10 10 16 10 2 8 8 7 20 18 10 15 21 26 27 28 29 28 28 30 27 23
10 10 9 8 8 8 8 8 8 8 7 7 7 7 8 7 8 8 6 6 6 6 4 3 5 6 8 12 6 6 9 8 10 10 8 10 11 10 6 6 8 9 10 11 10 8 6 3 4 8 11 13 12 9 5 5 4 2 2 4 3 5 7 7 11 14 10 9 16 11 3 7 7 7 21 18 11 11 14 27 31 30 31 31 29 31 28 23
11 10 9 9 8 8 8 8 8 8 8 8 8 9 9 9 10 9 8 7 7 7 3 3 5 7 8 8 4 7 11 12 11 9 10 12 12 12 7 5 7 7 8 9 6 5 5 6 7 10 12 11 7 5 4 4 4 2 4 5 5 6 7 6 10 16 13 7 11 9 4 4 5 7 18 15 11 7 6 23 34 32 32 33 31 31 29 26
12 11 10 10 9 8 8 7 7 8 8 8 9 10 11 11 11 10 9 8 8 7 4 0 3 8 7 5 4 8 10 9 10 10 11 12 13 12 8 8 9 8 7 7 8 6 6 7 7 7 8 6 3 3 3 5 5 3 4 5 6 7 6 5 7 11 12 7 7 8 6 5 5 5 16 15 12 10 7 20 31 31 33 34 33 32 31 29
13 11 11 10 9 8 7 7 6 6 6 7 9 11 12 13 13 13 11 9 7 5 4 4 3 5 7 12 11 11 10 10 12 12 12 11 13 13 11 11 9 10 8 6 10 11 7 6 5 3 4 4 3 3 3 5 4 3 4 4 6 7 5 6 6 8 11 9 7 7 8 6 5 4 14 16 13 8 8 21 29 28 30 32 32 33 31 32
14 12 11 11 9 8 7 6 5 4 4 5 8 11 13 14 13 12 10 8 6 3 2 7 12 4 4 10 12 11 10 11 12 12 14 12 11 12 10 11 11 13 11 6 8 11 8 3 3 3 4 5 6 7 7 6 4 5 5 3 6 6 5 6 8 9 10 8 7 8 8 6 6 7 9 14 16 9 6 20 29 27 29 31 31 34 34 34
16 13 11 10 9 8 6 5 4 3 3 5 9 11 11 11 7 2 5 10 11 11 11 12 18 17 13 10 8 12 11 12 12 13 13 11 9 9 8 11 13 12 9 4 5 11 10 4 4 6 6 9 8 7 6 4 3 5 6 5 8 7 6 3 9 10 7 7 6 7 6 7 6 8 7 13 18 12 7 17 26 28 31 30 29 32 32 33
17 15 12 10 9 7 5 3 3 4 4 7 11 11 10 10 6 4 3 11 16 18 20 20 21 24 24 20 7 14 13 12 12 14 12 11 12 8 8 11 9 6 6 7 6 8 9 5 7 9 10 10 7 4 2 2 4 5 5 6 8 7 7 3 7 7 4 6 3 1 1 6 6 6 7 12 11 9 10 16 22 26 26 26 30 32 32 33
18 16 14 11 8 7 4 3 3 4 7 8 11 12 11 9 8 10 9 10 17 20 21 22 23 24 27 28 15 15 14 11 10 12 13 14 14 9 9 10 6 4 5 8 6 4 5 6 10 12 9 7 3 2 4 5 5 5 4 5 6 6 5 5 4 3 5 4 2 5 5 6 7 7 4 8 8 8 13 16 20 24 24 26 31 34 33 33
17 16 15 12 9 8 6 5 5 6 8 9 11 12 10 6 7 13 12 9 15 20 21 23 26 25 25 27 17 15 13 11 11 15 16 16 16 14 11 7 6 7 6 6 6 4 4 7 13 12 8 5 2 3 5 6 5 3 3 3 6 6 4 4 3 3 5 2 2 3 5 6 5 8 7 5 10 12 16 16 15 17 22 31 36 38 36 34
16 16 15 14 11 9 7 6 6 6 8 9 9 8 7 5 7 13 12 6 9 14 19 22 25 25 24 21 12 13 13 12 14 18 21 20 18 15 10 7 7 6 6 9 9 8 8 7 6 6 7 6 3 3 3 2 3 4 5 4 5 8 5 4 3 2 5 4 2 5 5 6 4 5 8 3 6 10 15 16 13 11 15 28 35 36 36 35
16 14 15 15 12 10 8 6 4 5 8 10 8 8 9 5 6 11 11 4 5 8 13 17 21 23 22 17 13 15 15 14 17 19 24 26 21 13 10 11 8 5 7 10 9 9 9 6 8 7 4 3 3 2 2 5 1 4 4 6 7 9 7 3 3 4 6 5 1 5 3 6 6 5 8 6 2 4 10 12 14 13 14 27 33 32 35 36
16 15 14 14 13 11 9 6 5 7 11 11 10 10 9 5 7 13 8 1 4 5 6 9 13 15 17 17 17 16 11 12 20 21 24 27 22 14 8 8 7 6 8 8 4 3 5 6 8 7 2 2 2 1 2 5 3 3 4 4 5 7 8 4 2 4 3 2 3 5 5 4 6 6 7 7 5 3 8 7 10 13 19 30 34 32 35 36
17 15 14 13 13 12 10 8 7 10 13 11 8 11 9 8 10 13 4 1 4 3 5 7 10 8 11 17 18 12 4 8 14 18 25 25 19 15 7 5 5 6 6 1 2 2 1 3 4 6 4 1 0 2 5 5 3 4 4 2 5 7 7 6 2 2 4 3 3 1 6 2 4 6 6 5 5 6 6 5 8 12 15 26 36 36 37 38
17 16 14 13 13 12 11 9 7 9 11 8 5 10 11 12 10 7 2 1 3 4 4 6 8 4 7 17 20 13 9 10 4 13 28 23 14 11 7 7 5 7 7 1 3 5 2 5 5 5 5 3 3 4 6 6 4 6 5 2 4 6 5 5 3 3 3 3 3 4 4 3 4 6 6 4 5 7 7 6 7 8 8 16 30 39 41 39
17 17 15 13 12 11 9 8 6 8 6 4 5 10 13 12 7 3 2 0 3 2 3 6 7 5 8 15 17 15 14 12 4 13 24 19 12 8 5 8 6 8 10 6 5 5 3 6 7 4 4 4 4 6 8 6 6 6 4 1 2 4 5 5 3 3 0 4 5 6 3 2 4 5 5 5 5 6 5 6 6 8 15 16 18 28 35 33
16 17 16 14 12 11 10 7 4 10 8 4 6 10 12 9 3 2 1 1 3 2 5 5 4 6 8 9 10 12 12 9 7 16 16 12 12 9 7 11 8 4 7 7 4 5 4 4 3 2 4 3 3 6 8 9 6 4 2 1 4 4 5 5 4 2 2 0 5 5 4 3 3 5 4 4 5 6 6 5 6 9 19 23 22 21 21 19
16 16 17 15 11 11 12 7 2 7 8 7 9 11 10 5 0 2 2 2 3 2 4 4 4 7 10 8 5 8 9 8 7 13 9 4 7 7 5 7 7 2 4 6 4 4 4 3 2 4 8 4 4 4 5 7 4 3 4 2 4 4 4 3 5 3 1 4 4 2 3 3 3 5 5 5 4 4 6 6 7 8 17 24 22 21 24 24
16 17 18 16 13 13 15 10 5 4 7 8 11 9 4 2 1 3 3 3 3 3 1 2 6 7 10 10 6 6 6 6 6 5 5 3 4 5 4 3 3 0 3 5 4 4 5 4 3 5 8 7 2 3 5 6 3 3 5 4 4 3 3 2 3 2 1 5 3 5 6 3 4 6 7 4 1 4 4 7 11 12 18 24 22 18 20 22
17 18 18 17 15 16 17 14 11 8 7 7 8 5 1 1 2 4 3 2 3 3 3 3 6 8 10 9 5 6 6 6 6 4 6 6 5 5 7 8 7 3 3 4 2 2 4 5 3 1 4 8 5 2 2 4 2 2 3 3 3 1 1 2 2 1 1 4 5 5 5 4 3 5 7 7 5 8 11 14 19 20 20 19 19 20 20 17
17 17 19 19 18 17 17 15 12 9 7 5 4 1 1 3 3 3 3 3 5 6 5 6 8 9 9 8 6 7 7 6 8 7 7 6 4 4 6 9 9 6 4 2 2 2 2 5 4 2 3 8 7 4 6 4 2 3 4 5 5 3 3 3 1 1 2 4 5 4 2 3 4 4 7 7 6 15 20 21 22 22 20 19 20 21 19 15
17 16 18 21 20 16 15 15 12 9 8 5 2 1 3 4 3 3 3 4 6 7 8 10 8 6 5 5 6 8 8 6 8 7 5 6 5 5 5 6 9 6 3 2 2 2 2 4 5 5 8 10 6 5 6 3 2 4 2 5 4 4 5 3 3 5 4 1 3 2 1 4 4 5 7 3 7 15 19 22 21 17 16 22 25 21 17 14
17 16 17 21 20 14 11 12 12 10 10 5 2 3 4 4 4 3 3 5 6 4 5 6 4 3 4 2 3 8 9 7 7 5 3 3 5 6 6 5 7 7 5 4 1 0 2 5 6 4 9 10 4 3 2 4 1 3 1 2 4 3 7 4 1 1 3 0 3 3 3 4 2 3 5 0 6 8 11 14 16 17 19 24 25 21 17 13
18 16 17 21 18 9 6 9 11 13 12 6 2 4 4 4 7 7 6 9 11 8 5 2 0 1 3 1 3 6 7 6 6 6 1 1 3 6 8 8 9 9 6 7 1 1 3 3 7 2 4 7 7 2 3 2 3 2 1 3 4 3 4 4 1 1 1 1 3 3 4 4 3 3 4 3 7 6 8 9 11 17 22 24 24 21 17 13
18 17 18 19 13 8 9 9 9 14 12 5 4 5 4 6 9 10 11 12 13 9 2 1 1 2 1 1 5 4 3 4 3 4 2 1 2 4 5 5 9 6 6 11 4 2 3 1 6 6 4 1 4 3 2 3 1 1 4 3 3 2 1 1 2 1 1 1 3 4 4 3 3 3 4 5 7 6 6 8 10 13 17 21 24 23 18 13
16 15 14 7 6 10 15 13 13 16 10 4 4 4 4 7 12 17 19 16 12 7 2 1 1 3 3 3 5 6 2 3 1 1 2 3 4 3 5 3 3 4 9 10 4 1 3 1 4 6 8 7 4 2 3 3 4 2 4 4 1 4 3 1 2 3 3 2 3 3 3 3 2 4 6 7 5 4 5 7 8 10 16 23 25 23 19 14
11 9 8 4 6 8 15 17 15 12 7 3 4 5 5 7 11 19 23 18 10 3 1 1 2 2 3 4 4 5 5 4 3 2 2 3 2 2 3 3 2 3 7 8 4 2 3 2 2 6 8 7 4 1 2 2 1 1 1 2 2 1 1 2 1 1 2 2 1 1 2 4 4 4 3 4 2 2 5 7 5 8 17 23 25 23 20 17
7 4 7 3 6 12 18 17 10 6 3 3 4 6 8 9 11 16 22 20 10 1 3 3 4 4 5 3 3 6 4 3 4 3 3 2 1 1 4 4 5 5 4 5 3 2 1 2 1 3 5 3 5 6 4 1 1 1 2 3 2 1 3 4 3 4 1 1 2 3 2 5 5 4 3 2 2 2 3 6 7 12 19 22 24 24 21 19
6 5 6 3 13 20 18 9 4 5 4 4 7 9 11 11 11 13 17 18 10 0 1 2 4 4 5 4 3 3 1 0 3 3 3 3 2 4 3 2 5 7 5 4 2 3 2 3 2 1 3 4 7 10 9 8 7 5 2 3 3 3 4 4 1 3 2 2 2 2 1 5 5 4 4 6 7 8 5 6 12 16 21 24 24 23 21 18
8 10 10 0 9 14 11 3 4 4 3 6 11 14 15 13 10 11 11 8 5 3 2 2 4 5 4 3 3 4 2 1 3 3 1 1 4 9 10 12 12 8 4 3 2 4 3 3 3 2 4 5 8 10 10 9 7 5 4 2 2 1 3 5 4 3 2 2 1 1 1 4 6 5 6 11 14 15 13 11 19 19 19 24 25 22 21 20
14 14 11 4 5 9 5 2 4 3 4 8 10 12 15 14 11 11 8 3 2 4 4 3 4 2 2 3 4 4 2 1 2 4 1 1 4 9 9 13 15 9 3 3 1 1 1 1 2 2 3 5 6 6 7 7 5 3 4 5 4 3 4 3 1 2 1 2 1 1 1 5 4 5 8 11 12 14 17 17 19 17 17 22 22 21 22 21
13 9 9 7 7 12 9 5 5 4 4 7 7 7 8 11 13 12 8 5 4 4 5 5 6 5 3 4 6 6 4 1 1 2 1 1 4 8 8 8 14 10 5 8 7 4 2 1 3 4 2 1 1 0 2 4 5 3 4 7 6 6 7 4 2 4 1 4 4 1 3 4 3 7 9 8 8 9 14 17 15 13 12 16 19 19 21 19
7 3 7 11 6 8 11 11 8 5 4 5 5 5 5 6 8 11 11 5 0 6 7 7 7 6 4 5 5 5 6 5 3 2 2 1 1 7 11 13 15 12 9 12 11 6 2 1 2 4 5 4 4 4 2 4 5 4 6 8 7 6 7 5 4 1 2 2 5 2 2 1 2 7 8 8 8 7 8 10 11 10 9 11 15 14 14 17
7 2 6 9 9 6 5 7 7 5 6 6 3 3 6 5 4 7 8 4 7 11 8 7 5 3 4 6 2 1 5 5 5 6 5 5 3 3 13 17 15 11 9 9 8 5 3 1 1 1 2 3 5 8 9 8 6 6 7 8 8 7 7 5 2 3 2 2 4 3 3 3 2 2 5 2 4 5 5 7 12 12 10 11 12 10 10 14
8 5 10 12 7 5 6 8 8 7 9 8 3 3 6 5 4 4 3 3 7 10 7 6 7 7 8 8 3 1 4 3 4 6 5 6 5 2 7 11 9 9 8 5 4 5 4 1 2 2 3 5 6 8 9 8 7 8 8 7 7 7 8 6 3 4 1 1 6 5 2 4 5 3 4 2 5 10 12 10 8 8 8 13 15 13 11 11
13 8 13 18 12 8 11 15 13 8 7 8 5 5 7 6 7 7 5 2 2 8 9 5 8 11 12 13 9 6 6 4 3 5 4 5 6 4 4 5 4 8 7 2 1 5 4 1 2 1 3 5 5 7 8 7 6 7 7 7 7 6 6 5 4 4 2 2 6 2 3 4 6 5 5 9 15 18 22 23 20 18 12 6 15 15 13 13
16 9 13 18 14 13 16 16 11 4 7 10 7 6 8 9 9 7 6 7 4 5 7 6 9 13 13 15 12 8 9 8 4 5 5 5 5 3 3 3 1 2 4 1 1 4 4 1 1 2 2 4 5 7 8 7 7 8 8 9 8 6 5 5 4 4 4 3 4 5 8 5 6 5 6 13 20 21 22 23 23 25 24 12 3 7 11 14
18 10 13 13 8 11 12 9 7 5 5 7 6 7 9 11 13 9 8 14 14 10 9 9 10 10 11 14 13 10 12 13 9 9 9 6 5 5 3 3 3 3 2 1 2 3 3 1 1 5 4 3 4 6 8 7 7 7 7 8 7 5 4 3 3 4 5 4 7 9 8 4 6 8 9 12 17 18 17 19 20 23 27 24 17 11 4 4
23 13 17 14 5 7 9 6 7 7 5 7 9 10 10 12 16 12 6 12 19 18 16 13 10 8 7 10 11 12 18 20 18 17 14 10 11 12 11 10 8 4 2 2 3 2 4 3 1 3 2 3 3 5 6 6 7 5 5 6 7 6 4 3 6 8 8 6 6 6 4 4 6 11 12 11 11 11 14 20 21 20 25 27 27 24 17 11
Wind_Direction
351 350 347 344 342 338 337 335 334 333 328 322 319 321 323 324 325 322 328 325 321 310 296 290 284 282 281 282 275 272 268 263 260 253 261 261 211 208 204 211 234 227 225 228 224 201 199 225 216 202 238 252 250 253 258 261 261 258 230 204 249 247 245 252 250 268 227 70 15 62 58 16 336 25 36 40 240 160 87 91 104 115 135 147 147 149 152 154
355 353 351 349 347 345 346 346 346 344 337 329 322 326 328 326 326 322 322 320 314 304 287 276 272 280 291 289 284 285 281 280 269 258 268 239 208 215 208 224 242 235 230 222 211 192 189 215 224 224 237 245 242 240 244 244 246 244 187 198 228 231 249 260 263 284 289 17 39 106 74 35 325 5 51 347 268 113 87 90 103 109 123 134 142 149 152 154
355 354 354 353 353 355 357 357 358 355 350 339 326 327 329 328 328 325 318 308 302 298 277 269 275 288 295 294 298 299 296 296 282 276 299 199 219 228 221 228 237 239 237 222 207 187 183 214 222 221 227 238 240 238 233 224 235 227 217 237 241 246 264 269 280 301 311 27 51 67 37 4 334 332 188 230 317 77 114 121 114 114 125 135 144 150 152 155
351 352 355 356 357 1 3 5 5 0 357 351 340 327 323 328 330 328 317 304 302 295 274 273 285 296 297 302 309 303 308 313 294 290 12 0 282 247 237 235 236 238 230 214 204 198 218 242 242 230 220 227 234 239 238 220 221 210 207 219 246 259 274 273 290 337 0 34 34 17 17 336 316 316 247 37 346 332 130 141 141 135 138 144 148 153 155 155
341 348 352 355 359 1 4 8 6 3 0 358 353 337 323 324 330 332 323 315 304 285 274 280 290 299 300 310 306 304 322 347 339 303 306 330 341 321 268 237 234 228 214 207 206 210 234 251 253 243 226 225 231 235 243 230 222 212 218 222 240 249 264 279 289 353 356 10 16 356 358 297 291 323 296 265 208 93 144 152 149 144 147 151 152 155 156 154
329 338 344 350 356 357 0 4 3 4 3 1 360 352 337 324 326 335 330 324 306 283 278 282 298 299 298 315 309 310 315 50 323 287 285 320 327 315 293 225 216 206 204 202 204 212 238 254 253 248 233 226 238 240 254 241 224 223 253 235 246 250 250 278 283 322 356 4 11 322 310 300 309 334 288 256 126 132 150 154 149 148 153 155 156 158 157 155
319 322 329 339 346 349 349 353 357 358 1 3 0 357 351 337 330 334 335 325 305 292 286 291 300 292 309 319 316 313 282 276 304 275 280 310 312 294 240 209 197 195 199 191 194 203 233 253 243 242 244 225 238 247 260 255 231 223 252 242 254 262 266 277 283 326 76 44 329 291 300 305 319 319 280 117 115 132 144 147 148 151 155 157 159 160 159 157
311 310 314 325 331 336 337 343 349 351 357 1 0 358 354 348 336 332 333 322 308 302 297 303 297 291 335 329 331 321 290 294 310 271 288 300 295 261 212 196 188 190 191 181 188 208 240 253 237 234 244 229 233 234 248 256 241 230 233 236 251 269 281 283 286 305 36 349 288 278 285 285 279 267 228 122 124 133 136 140 147 150 155 159 161 161 159 160
303 303 305 310 316 323 326 333 339 344 352 357 0 359 353 351 342 334 329 318 309 307 307 306 299 310 326 317 344 329 301 320 286 270 299 296 275 231 200 187 184 185 185 182 194 223 250 252 231 226 236 249 249 246 255 259 235 226 221 221 235 266 278 277 281 299 299 275 261 261 252 259 259 255 182 129 133 135 136 141 148 152 157 161 163 163 161 162
299 297 299 300 304 311 315 322 329 337 345 353 359 360 358 357 351 344 328 321 308 306 312 300 299 315 307 309 357 341 298 307 269 286 308 277 220 194 179 173 178 178 181 187 204 229 254 248 233 235 239 255 262 270 281 275 266 260 247 240 237 251 267 267 251 259 265 247 241 239 231 251 243 232 158 138 141 140 140 145 151 154 157 161 163 163 162 162
303 297 294 293 297 302 305 311 317 329 338 348 356 0 1 0 360 356 337 325 307 305 301 290 293 279 304 297 260 256 291 284 276 306 315 195 166 168 161 158 170 176 179 195 218 240 257 249 254 259 248 271 289 283 276 272 281 288 286 278 273 268 275 283 263 258 264 228 225 231 245 265 232 182 180 152 144 143 144 148 155 156 157 159 161 162 161 159
310 303 295 290 290 294 299 301 305 318 332 343 350 358 357 355 357 355 345 330 309 307 290 289 288 282 309 283 258 264 293 281 290 305 308 138 133 144 146 150 170 188 200 222 237 259 259 256 278 294 290 307 301 279 286 294 283 271 278 313 300 298 285 276 263 263 269 214 218 227 274 284 241 187 183 159 150 153 149 152 158 157 155 155 159 160 158 160
314 309 304 295 287 286 292 295 296 305 320 335 341 349 348 346 346 346 347 333 316 305 288 295 300 305 312 280 272 280 120 194 264 274 272 137 139 133 140 173 206 239 249 250 263 291 265 255 275 288 301 304 298 307 308 308 286 251 261 184 262 294 272 246 241 247 245 226 217 204 261 267 260 208 174 155 172 180 159 157 158 154 151 153 161 160 156 162
321 317 313 306 297 287 285 286 288 293 305 323 328 334 336 335 331 328 331 328 329 309 290 308 318 322 304 272 273 228 182 182 223 242 236 179 181 186 224 238 254 259 257 259 275 307 285 247 263 279 299 295 293 310 306 305 296 247 286 254 211 250 259 235 222 230 229 224 206 178 215 253 273 215 160 145 186 195 166 158 152 145 147 154 162 160 156 163
328 325 321 316 309 297 287 280 281 284 293 309 316 319 320 319 319 320 317 311 320 313 299 327 333 340 306 283 273 213 218 213 216 232 220 202 203 209 216 229 243 240 245 256 268 302 296 266 278 274 282 275 274 288 285 294 284 209 250 270 235 209 251 244 207 212 218 209 182 165 241 249 275 203 154 146 182 196 160 151 148 145 150 157 160 160 159 162
334 331 327 323 317 308 300 285 281 280 282 293 299 303 302 302 308 310 308 298 302 307 308 353 344 341 318 285 257 216 230 224 213 220 213 205 204 204 199 200 219 221 233 246 256 304 281 246 259 258 265 270 264 257 266 297 287 233 199 236 243 213 245 245 203 202 203 188 157 161 239 253 276 194 154 148 170 195 150 142 148 149 152 156 158 159 157 157
342 337 332 329 324 317 312 301 293 285 280 280 282 289 291 294 300 300 301 290 283 287 277 26 0 321 285 229 217 221 227 215 194 202 208 202 204 201 177 181 215 223 222 232 240 261 248 223 234 251 261 259 253 268 282 275 270 273 232 233 247 230 229 210 194 198 188 165 148 176 225 247 270 178 146 150 167 186 166 142 149 153 154 158 159 157 153 159
349 343 338 335 332 328 325 318 311 298 282 271 271 284 288 291 291 287 288 281 272 282 269 197 153 327 265 230 233 224 214 197 183 195 209 210 218 218 192 186 211 210 203 221 229 232 227 213 208 234 275 260 248 235 217 237 247 279 260 241 263 257 221 181 183 195 179 163 159 188 229 247 260 184 146 154 163 168 158 147 151 154 155 158 159 157 155 160
356 348 342 340 340 337 337 331 322 307 289 274 279 290 294 297 293 281 273 258 232 219 267 199 185 188 270 237 219 209 210 195 182 191 207 218 228 235 217 203 215 207 200 209 214 212 204 199 224 241 266 249 236 223 218 240 268 309 304 264 279 282 239 197 174 179 171 160 169 183 219 240 226 204 163 160 165 167 162 143 143 147 154 159 160 162 161 159
3 355 346 343 344 342 344 343 336 321 305 293 297 302 306 309 310 286 240 243 242 247 266 245 218 226 266 277 195 179 190 185 187 195 206 213 207 230 235 214 221 217 207 208 204 204 191 177 234 226 232 234 232 225 230 260 301 328 327 311 314 312 279 223 151 172 158 136 188 190 210 242 226 217 196 167 164 167 158 132 137 147 154 160 160 160 162 161
7 1 351 345 342 343 346 346 347 334 319 308 309 313 313 317 331 2 289 265 273 270 267 265 248 243 262 278 227 165 168 179 197 201 202 207 199 213 220 206 227 237 221 234 237 213 189 192 233 226 231 229 212 181 182 342 354 350 339 322 323 316 304 6 118 171 128 102 211 264 305 276 273 253 211 170 160 171 162 133 141 155 155 156 156 156 162 166
7 4 357 349 340 338 333 326 332 321 319 315 315 311 306 328 342 330 326 294 286 279 266 265 261 252 259 270 244 173 171 185 204 206 200 203 203 206 191 184 218 246 229 233 237 221 195 221 238 230 232 228 193 74 42 23 9 356 345 334 313 302 322 2 48 87 80 87 290 344 347 298 301 302 256 166 147 157 164 147 147 157 156 156 157 159 163 165
3 5 0 353 340 330 314 314 318 317 325 315 312 311 307 345 343 317 322 301 285 280 263 252 253 250 255 261 235 180 186 192 197 206 198 197 203 205 199 188 214 225 226 223 203 186 201 236 243 228 204 194 181 58 48 31 0 325 300 314 291 288 334 341 330 66 74 95 143 31 347 308 315 325 312 183 150 150 167 165 156 163 168 168 166 167 168 167
353 359 358 353 342 328 310 309 314 323 325 302 302 327 342 345 316 316 324 293 275 279 259 240 238 240 244 251 226 190 210 211 206 203 194 199 200 199 218 231 232 230 228 223 205 203 225 226 220 196 172 168 145 83 79 75 324 290 245 239 266 286 320 330 307 40 38 18 95 65 10 318 320 328 308 265 145 149 161 157 161 186 187 176 172 171 175 177
341 347 352 352 343 333 319 304 306 313 300 292 315 354 3 342 296 321 333 295 262 267 252 234 227 229 231 235 223 210 217 223 229 213 193 198 197 187 217 231 232 251 248 242 220 213 236 201 130 120 154 158 115 111 174 167 229 301 247 221 235 269 292 312 0 48 38 352 325 85 61 299 306 306 284 282 349 150 160 155 173 181 157 161 171 176 179 183
333 333 340 345 341 335 322 301 289 286 285 302 340 358 348 315 294 318 332 313 281 239 210 203 201 213 217 216 215 211 212 228 239 229 196 192 198 194 208 222 217 236 249 258 244 203 224 190 134 110 92 19 59 318 252 165 156 285 254 244 247 266 283 291 24 78 92 272 252 130 138 262 300 300 276 266 288 241 178 165 169 156 132 148 167 178 180 182
325 326 329 335 338 332 320 306 284 276 279 295 354 10 338 299 304 321 338 336 289 193 152 165 174 195 205 198 196 189 213 244 235 218 189 182 202 207 213 250 228 237 252 307 330 277 182 150 114 108 120 13 77 267 262 189 164 244 230 304 305 289 289 281 266 166 168 205 284 157 148 180 287 277 270 254 284 277 214 171 144 144 144 156 165 173 179 181
317 320 320 323 331 329 320 317 305 298 290 283 351 4 325 303 314 330 37 347 272 149 131 169 176 212 194 179 185 190 234 253 228 182 178 178 207 204 200 248 253 274 279 284 253 255 135 132 149 144 155 183 197 230 242 203 195 236 205 175 271 281 294 288 275 252 187 145 292 278 165 172 269 268 280 281 286 270 219 168 133 125 134 158 162 169 180 183
310 312 313 314 320 321 312 309 333 354 339 298 327 326 304 302 322 356 91 275 269 179 162 174 172 210 190 173 190 211 234 248 220 167 171 177 206 205 209 247 263 292 280 264 234 222 175 177 181 161 157 179 206 234 247 233 214 221 213 232 316 330 328 325 308 281 56 134 225 253 182 173 270 276 284 293 288 261 205 158 154 117 93 89 117 156 179 186
302 304 306 306 307 309 298 286 9 20 6 333 310 311 310 308 335 41 106 243 283 203 145 149 165 197 193 178 197 213 227 247 196 167 167 171 191 207 252 264 266 286 289 294 264 221 230 221 192 153 176 203 239 233 246 252 226 170 153 308 356 353 317 317 311 299 27 281 240 236 201 189 269 274 241 248 252 207 177 154 160 123 96 86 85 113 143 160
293 294 297 297 295 294 283 264 51 18 349 318 294 304 321 319 109 127 208 284 296 230 127 146 195 191 195 199 204 205 220 251 200 162 160 166 179 196 250 274 262 258 313 314 305 278 269 245 222 194 193 219 305 281 276 277 254 106 88 57 28 345 302 316 334 1 70 260 265 291 262 218 239 259 240 267 280 167 152 143 137 116 98 95 91 91 95 99
286 284 285 288 285 274 266 259 256 293 307 300 290 298 332 348 226 200 237 330 309 265 324 212 204 199 204 204 210 204 199 240 238 164 152 170 173 191 199 210 213 220 308 283 290 296 272 235 211 191 191 196 228 293 304 308 302 82 76 68 60 347 316 324 324 2 179 247 280 351 331 283 221 243 249 261 347 67 78 116 121 111 101 97 96 95 91 92
287 278 275 279 278 268 262 264 264 268 288 299 297 305 53 143 244 220 224 305 243 236 315 281 236 226 211 196 209 214 191 210 228 185 177 186 170 189 207 206 202 184 209 249 295 287 287 286 254 199 184 187 177 159 250 286 292 133 127 116 124 171 292 288 289 333 279 274 290 328 328 299 277 268 261 240 173 100 85 104 109 104 102 97 97 99 93 92
292 281 274 271 271 266 259 259 260 260 276 297 311 325 177 213 251 247 248 264 253 263 285 279 272 253 216 187 191 205 194 207 214 192 185 187 169 191 210 211 213 197 174 225 283 192 302 310 257 237 169 173 180 182 193 223 243 213 188 147 151 171 167 199 205 146 235 282 304 328 342 257 261 270 273 256 149 105 96 103 104 99 98 95 96 98 93 88
302 288 274 266 265 265 258 251 249 241 244 263 283 195 194 222 244 246 255 248 246 256 254 249 265 283 245 198 199 210 199 201 217 215 199 184 186 199 196 206 216 206 155 168 254 220 230 257 240 218 171 157 171 206 198 205 287 270 203 136 183 195 150 158 180 165 169 232 305 303 224 224 216 237 271 288 98 99 102 105 105 103 98 95 97 97 92 89
308 293 277 266 263 264 254 240 229 220 222 227 232 219 213 232 240 235 266 262 258 285 291 261 249 271 258 224 244 234 206 182 194 215 238 204 204 202 189 195 210 204 172 150 232 281 186 257 276 215 160 151 169 242 189 128 155 297 351 160 238 199 129 120 232 184 129 136 273 240 241 277 260 250 271 203 102 107 113 111 113 114 103 96 100 103 100 100
312 302 282 266 258 250 230 227 212 203 209 204 203 234 231 244 247 250 273 282 286 303 327 329 4 276 278 263 277 249 203 178 175 182 241 300 231 230 220 205 193 197 164 118 108 305 128 278 299 317 147 164 171 220 319 82 103 37 311 276 316 3 90 103 91 350 65 179 258 233 218 253 253 264 274 175 148 147 136 124 118 113 107 105 108 110 110 107
319 315 291 270 252 217 209 222 202 190 198 206 230 248 252 257 259 269 287 293 297 304 308 58 138 214 269 297 292 289 179 172 164 170 199 218 215 263 270 214 176 162 91 90 94 333 75 343 307 336 352 212 159 162 269 306 14 169 245 281 25 48 356 22 116 171 188 210 280 274 243 234 220 236 259 218 181 173 156 136 128 122 120 121 120 119 119 112
325 324 300 260 180 187 201 206 196 191 198 219 234 241 252 258 261 267 273 275 282 292 289 337 273 209 196 198 276 306 249 200 222 140 181 197 228 292 340 342 141 83 54 75 105 1 64 86 290 320 348 360 3 100 148 307 315 263 264 300 77 155 183 212 174 166 169 200 271 288 283 291 254 218 235 236 206 168 153 139 139 142 135 132 129 127 127 126
327 316 286 211 165 188 190 187 190 194 207 233 231 249 261 263 265 262 263 265 262 259 229 305 332 294 245 190 208 259 265 242 254 278 238 206 236 301 340 5 58 54 45 61 75 46 51 81 254 303 346 10 344 291 153 181 272 27 21 291 292 280 91 60 328 226 146 167 233 268 292 293 265 245 240 211 176 131 149 141 130 133 133 133 133 132 135 139
336 267 287 301 177 176 169 172 186 199 220 239 233 254 259 262 275 275 277 283 282 88 59 331 322 314 296 286 221 222 230 230 224 242 264 244 39 331 252 215 148 137 92 69 58 27 56 114 165 299 336 340 282 299 337 351 296 297 198 184 183 139 83 53 339 309 23 126 179 148 206 262 259 297 347 77 62 13 136 126 116 130 134 134 135 139 144 147
355 252 292 51 149 163 159 159 209 205 207 245 241 250 259 259 267 272 277 288 293 275 101 292 288 282 273 283 294 276 279 192 210 210 220 225 66 42 302 264 120 118 107 101 85 29 59 108 95 288 274 277 292 313 331 329 321 306 248 158 124 123 118 114 200 268 295 275 245 126 171 258 269 306 359 36 17 344 348 79 108 130 137 135 136 142 144 143
335 284 283 207 158 173 163 171 257 225 215 246 246 252 259 258 260 260 260 278 302 286 241 225 239 260 266 265 291 297 305 330 272 271 246 192 76 59 34 22 44 67 73 78 45 358 14 84 85 304 292 315 321 323 323 325 341 342 314 344 78 141 133 137 174 209 201 225 248 56 324 269 284 318 13 31 21 3 7 75 117 128 130 133 137 140 140 139
322 300 287 274 209 202 174 166 237 255 252 244 246 254 259 263 264 261 262 267 276 285 286 259 243 253 328 349 341 316 295 145 238 267 296 84 75 72 57 41 50 57 46 62 98 318 12 88 97 62 347 345 337 335 338 341 6 24 318 338 5 15 37 61 58 34 11 271 240 120 235 255 281 350 20 26 30 28 33 68 107 115 118 131 138 138 138 137
324 310 301 295 232 213 217 225 223 244 270 262 263 262 270 277 267 265 280 266 245 306 324 319 336 356 4 351 350 339 329 22 186 245 254 141 118 113 122 93 79 81 69 68 87 116 122 124 105 116 149 235 260 247 32 348 345 349 326 334 345 4 19 34 53 52 11 302 330 121 208 256 325 26 27 15 29 48 51 63 79 78 96 128 136 137 141 141
323 325 336 329 300 224 231 255 266 264 265 276 282 281 289 291 284 299 310 286 4 7 336 316 343 2 0 355 1 349 330 329 333 329 2 7 172 145 137 115 97 101 96 75 74 82 82 59 92 130 170 191 230 260 327 346 324 315 320 326 332 360 26 53 64 79 191 321 336 279 166 104 29 48 39 17 20 44 71 92 98 79 79 111 116 115 130 142
331 333 17 354 333 329 314 307 312 310 296 290 285 294 294 284 286 312 315 323 19 14 342 311 339 10 344 335 325 330 323 318 343 359 14 13 326 169 130 114 103 103 103 88 86 90 73 20 322 267 225 247 280 298 318 324 309 301 306 312 319 335 1 26 19 249 216 28 305 272 59 35 277 86 79 41 13 27 62 124 141 133 123 126 117 104 113 124
4 346 9 9 343 311 337 346 342 337 328 317 317 357 335 332 339 330 326 331 357 16 13 333 346 4 355 351 349 341 328 310 359 13 18 23 358 352 100 98 101 104 95 80 104 114 101 188 237 280 285 284 293 295 297 295 291 295 290 288 303 325 344 350 299 270 345 8 251 256 11 335 314 42 92 98 43 38 41 60 97 113 135 160 163 162 151 134
13 354 348 357 351 299 310 334 332 322 343 354 0 357 352 5 2 343 349 344 338 29 33 353 348 11 27 35 42 35 9 350 1 13 12 20 4 342 45 59 96 114 103 78 116 114 106 192 226 268 298 301 312 305 301 300 296 301 298 293 302 317 341 352 316 306 341 247 248 286 42 11 356 24 66 69 60 53 46 44 41 33 34 136 169 172 170 170
8 359 336 340 338 316 318 334 339 343 18 16 11 359 358 11 6 348 7 28 25 24 29 23 10 16 37 47 45 38 16 2 2 6 6 22 13 355 48 47 357 108 105 116 93 104 110 199 218 81 13 334 336 324 315 315 310 309 308 309 320 342 2 5 343 344 5 321 315 35 66 46 352 357 54 63 59 56 46 37 34 30 28 37 151 213 211 194
9 14 349 334 312 313 328 350 20 48 36 12 9 4 2 13 16 14 28 32 34 27 18 34 37 26 37 42 34 16 357 346 336 339 344 358 352 330 346 10 359 25 41 1 27 93 118 192 36 67 42 316 314 318 311 319 334 330 324 330 349 8 11 3 4 24 43 30 19 38 49 14 343 5 30 44 52 62 56 38 35 40 40 40 35 15 336 174
12 19 6 355 309 317 345 17 34 40 30 10 10 5 6 23 27 30 27 17 25 25 13 23 48 41 40 39 16 351 343 332 320 320 326 331 329 324 326 333 340 354 7 31 42 106 126 115 103 93 87 262 283 321 329 357 6 335 327 356 3 355 357 37 38 30 39 52 60 62 40 359 14 28 27 21 28 58 61 42 37 41 43 43 42 42 49 75
Height
1492 1491 1490 1489 1488 1487 1487 1486 1485 1485 1484 1483 1483 1482 1481 1481 1480 1479 1479 1478 1478 1477 1477 1477 1476 1476 1476 1476 1476 1476 1475 1475 1475 1474 1472 1471 1472 1473 1474 1475 1476 1478 1478 1479 1480 1481 1481 1482 1483 1484 1485 1485 1486 1485 1485 1484 1484 1484 1485 1489 1492 1489 1483 1475 1472 1470 1468 1466 1462 1460 1459 1461 1463 1462 1463 1464 1465 1468 1470 1472 1473 1474 1476 1478 1480 1484 1488 1490
1492 1491 1490 1489 1488 1487 1487 1486 1485 1484 1483 1483 1482 1482 1481 1480 1480 1479 1478 1478 1477 1477 1476 1476 1476 1476 1476 1476 1475 1475 1475 1474 1473 1472 1471 1470 1471 1471 1472 1474 1475 1476 1477 1478 1479 1480 1480 1481 1482 1484 1485 1485 1484 1484 1484 1483 1482 1483 1483 1487 1487 1482 1475 1469 1468 1468 1465 1465 1461 1460 1460 1461 1463 1463 1464 1465 1465 1468 1473 1476 1476 1476 1479 1480 1482 1486 1488 1490
1491 1491 1490 1489 1488 1487 1487 1486 1485 1484 1483 1482 1482 1481 1480 1480 1479 1478 1478 1477 1477 1476 1476 1476 1476 1476 1475 1475 1475 1474 1474 1473 1472 1470 1470 1470 1470 1470 1472 1473 1474 1475 1476 1477 1479 1479 1480 1481 1482 1483 1484 1484 1483 1483 1483 1482 1481 1480 1482 1485 1481 1475 1471 1468 1468 1467 1464 1462 1460 1461 1462 1462 1463 1462 1464 1465 1466 1468 1472 1477 1477 1477 1480 1481 1483 1485 1487 1490
1491 1491 1490 1489 1488 1487 1487 1486 1485 1484 1483 1482 1482 1481 1480 1480 1479 1478 1478 1477 1477 1476 1476 1475 1475 1475 1475 1475 1475 1474 1473 1472 1470 1469 1469 1469 1470 1470 1471 1472 1473 1475 1476 1477 1478 1479 1479 1480 1482 1483 1483 1482 1482 1482 1481 1480 1480 1477 1479 1481 1476 1473 1472 1469 1468 1466 1462 1460 1460 1461 1462 1463 1463 1463 1463 1464 1467 1470 1472 1474 1474 1475 1477 1479 1481 1484 1486 1489
1491 1490 1490 1489 1488 1488 1487 1486 1485 1484 1484 1483 1481 1481 1480 1479 1479 1478 1478 1477 1477 1476 1475 1475 1475 1475 1474 1474 1474 1473 1473 1472 1469 1468 1469 1469 1469 1470 1470 1471 1473 1474 1475 1476 1477 1478 1478 1479 1480 1481 1482 1480 1480 1480 1478 1477 1477 1476 1475 1475 1472 1472 1472 1467 1465 1465 1462 1461 1461 1461 1462 1463 1462 1462 1462 1462 1467 1470 1470 1472 1473 1474 1475 1476 1479 1482 1484 1486
1491 1490 1489 1489 1488 1488 1487 1486 1485 1485 1484 1483 1482 1480 1480 1479 1478 1478 1477 1477 1476 1476 1475 1475 1475 1475 1474 1474 1474 1473 1473 1472 1469 1468 1469 1468 1468 1469 1470 1471 1472 1473 1474 1475 1476 1478 1478 1478 1479 1479 1479 1479 1478 1478 1476 1474 1474 1475 1473 1471 1470 1470 1469 1466 1464 1463 1461 1461 1462 1462 1462 1462 1461 1462 1461 1462 1465 1466 1467 1470 1472 1475 1476 1476 1477 1480 1483 1484
1490 1490 1489 1489 1488 1488 1487 1486 1485 1484 1484 1483 1482 1480 1479 1479 1478 1478 1477 1476 1476 1475 1475 1475 1475 1475 1474 1474 1473 1473 1473 1469 1467 1468 1468 1468 1468 1468 1469 1470 1471 1472 1473 1475 1476 1477 1477 1477 1478 1478 1478 1478 1477 1476 1474 1472 1472 1473 1472 1469 1468 1467 1466 1465 1464 1463 1462 1462 1463 1463 1462 1461 1462 1462 1462 1463 1464 1465 1467 1470 1472 1475 1477 1478 1479 1480 1482 1484
1489 1489 1489 1488 1488 1487 1487 1486 1485 1484 1484 1483 1482 1480 1479 1479 1478 1477 1477 1476 1475 1475 1475 1475 1475 1474 1475 1474 1473 1473 1471 1468 1467 1468 1468 1468 1468 1468 1469 1469 1470 1472 1473 1475 1475 1476 1476 1477 1477 1477 1477 1476 1475 1473 1472 1471 1470 1470 1470 1467 1466 1465 1465 1464 1463 1462 1462 1463 1464 1464 1463 1462 1461 1462 1463 1464 1465 1465 1467 1470 1473 1475 1477 1479 1480 1480 1481 1484
1489 1488 1488 1488 1487 1487 1486 1486 1485 1484 1483 1483 1482 1480 1479 1478 1478 1477 1476 1476 1475 1475 1475 1475 1475 1474 1474 1474 1474 1472 1469 1467 1467 1467 1467 1467 1467 1467 1468 1469 1470 1471 1473 1475 1475 1475 1476 1476 1476 1475 1475 1474 1473 1472 1470 1472 1470 1466 1465 1465 1464 1464 1463 1463 1462 1461 1461 1462 1463 1464 1463 1462 1460 1462 1464 1464 1465 1465 1466 1470 1473 1475 1477 1479 1480 1481 1481 1483
1488 1487 1487 1487 1486 1486 1486 1485 1485 1484 1483 1482 1481 1480 1479 1478 1478 1477 1476 1475 1475 1475 1475 1475 1475 1474 1474 1473 1474 1473 1469 1467 1467 1468 1467 1467 1467 1467 1468 1469 1470 1471 1473 1474 1475 1475 1475 1474 1474 1474 1474 1473 1472 1470 1469 1470 1468 1462 1462 1462 1463 1463 1462 1462 1461 1461 1462 1462 1462 1463 1463 1461 1459 1462 1466 1465 1464 1464 1465 1469 1472 1474 1476 1477 1479 1481 1483 1485
1487 1486 1486 1486 1486 1485 1485 1485 1484 1483 1483 1482 1481 1480 1479 1478 1478 1477 1476 1475 1475 1475 1475 1475 1475 1475 1474 1473 1474 1472 1468 1467 1467 1467 1467 1467 1467 1467 1468 1469 1470 1472 1473 1473 1473 1473 1473 1473 1473 1474 1473 1472 1470 1469 1467 1466 1464 1461 1462 1463 1462 1462 1462 1461 1460 1460 1461 1461 1461 1461 1461 1459 1459 1461 1463 1463 1463 1463 1465 1468 1471 1472 1474 1477 1479 1482 1484 1488
1486 1485 1485 1485 1484 1484 1484 1484 1483 1483 1482 1482 1481 1480 1479 1479 1478 1477 1477 1476 1475 1475 1475 1475 1475 1474 1474 1473 1472 1470 1468 1468 1467 1466 1467 1467 1467 1468 1469 1469 1470 1472 1472 1471 1472 1473 1473 1472 1473 1473 1472 1472 1470 1470 1467 1464 1463 1462 1462 1465 1465 1463 1462 1460 1459 1460 1460 1460 1459 1460 1464 1463 1460 1458 1458 1460 1462 1463 1464 1466 1468 1470 1473 1476 1479 1482 1485 1489
1485 1484 1484 1484 1483 1483 1483 1483 1483 1483 1482 1482 1481 1480 1479 1479 1478 1477 1477 1476 1475 1475 1475 1475 1475 1474 1474 1471 1469 1468 1468 1468 1467 1466 1467 1468 1469 1469 1470 1470 1471 1471 1471 1471 1472 1473 1473 1472 1472 1472 1472 1471 1470 1470 1467 1462 1463 1462 1462 1465 1467 1468 1465 1460 1459 1459 1459 1459 1457 1460 1471 1469 1459 1455 1455 1457 1460 1461 1464 1465 1467 1470 1472 1476 1479 1482 1486 1488
1484 1484 1483 1483 1482 1482 1482 1482 1482 1482 1482 1481 1480 1480 1479 1479 1478 1477 1477 1476 1476 1475 1475 1475 1475 1474 1473 1469 1467 1468 1468 1469 1468 1467 1468 1469 1469 1470 1470 1470 1471 1471 1471 1472 1472 1472 1471 1471 1472 1471 1472 1471 1470 1469 1467 1464 1463 1463 1465 1465 1468 1474 1468 1458 1458 1458 1457 1458 1454 1460 1473 1469 1458 1455 1453 1455 1458 1460 1463 1465 1468 1470 1472 1477 1480 1483 1485 1488
1484 1483 1483 1482 1482 1482 1481 1481 1481 1481 1481 1481 1480 1480 1479 1478 1478 1477 1477 1476 1476 1475 1475 1475 1474 1474 1472 1468 1466 1467 1467 1468 1468 1467 1468 1468 1468 1469 1470 1471 1471 1472 1472 1472 1472 1471 1471 1470 1472 1472 1472 1471 1470 1471 1470 1468 1465 1463 1471 1472 1469 1472 1467 1458 1456 1454 1455 1456 1452 1459 1470 1465 1457 1455 1452 1452 1456 1458 1461 1463 1466 1469 1471 1476 1480 1483 1485 1488
1484 1483 1482 1482 1481 1481 1480 1480 1480 1480 1480 1480 1480 1479 1478 1478 1477 1477 1476 1476 1476 1475 1475 1476 1475 1474 1473 1468 1465 1466 1466 1466 1466 1467 1468 1467 1468 1469 1470 1471 1471 1471 1471 1471 1471 1471 1471 1471 1472 1472 1471 1471 1471 1472 1472 1474 1471 1465 1470 1474 1470 1469 1466 1459 1452 1448 1450 1453 1452 1457 1464 1461 1456 1454 1452 1452 1454 1457 1460 1462 1464 1467 1470 1475 1480 1482 1483 1488
1483 1483 1482 1481 1481 1480 1480 1480 1480 1479 1479 1479 1479 1478 1477 1477 1476 1476 1475 1475 1475 1474 1475 1475 1474 1475 1471 1466 1464 1464 1464 1465 1466 1467 1467 1467 1467 1468 1470 1470 1471 1471 1471 1471 1472 1471 1471 1471 1472 1472 1470 1470 1470 1472 1479 1484 1480 1471 1468 1469 1466 1463 1462 1459 1452 1447 1448 1452 1454 1456 1458 1458 1456 1453 1452 1453 1454 1456 1460 1463 1464 1465 1469 1473 1478 1480 1482 1485
1483 1483 1482 1481 1480 1480 1480 1479 1479 1479 1479 1478 1478 1477 1476 1476 1475 1475 1474 1475 1475 1475 1475 1474 1475 1476 1469 1462 1462 1462 1462 1464 1465 1466 1467 1467 1467 1468 1470 1469 1470 1470 1470 1471 1471 1470 1471 1470 1470 1472 1471 1471 1470 1473 1483 1484 1476 1472 1470 1468 1465 1461 1457 1456 1453 1447 1447 1451 1455 1458 1458 1457 1456 1454 1452 1452 1454 1455 1458 1463 1465 1467 1470 1473 1476 1478 1480 1482
1483 1483 1482 1481 1480 1480 1479 1479 1479 1478 1478 1478 1477 1476 1475 1474 1473 1473 1473 1474 1474 1474 1472 1470 1471 1471 1463 1458 1459 1460 1461 1463 1464 1466 1466 1466 1467 1468 1468 1469 1469 1469 1470 1470 1470 1469 1470 1470 1472 1474 1474 1472 1469 1469 1474 1471 1466 1466 1466 1465 1465 1461 1454 1449 1448 1444 1444 1451 1455 1457 1459 1457 1457 1455 1451 1451 1452 1454 1457 1462 1466 1469 1471 1473 1475 1477 1478 1481
1483 1483 1482 1481 1480 1480 1479 1479 1478 1478 1478 1477 1477 1476 1475 1474 1472 1472 1472 1472 1471 1470 1468 1466 1466 1463 1459 1458 1459 1460 1462 1463 1464 1465 1465 1466 1467 1467 1467 1468 1468 1468 1468 1469 1469 1467 1467 1472 1475 1474 1472 1469 1466 1465 1464 1463 1462 1462 1463 1463 1461 1459 1451 1443 1444 1443 1442 1451 1455 1454 1456 1455 1455 1454 1451 1451 1451 1452 1456 1461 1466 1469 1471 1473 1474 1477 1479 1482
1484 1483 1482 1481 1481 1480 1479 1479 1478 1478 1478 1477 1477 1476 1475 1474 1473 1473 1472 1469 1467 1466 1465 1464 1464 1462 1458 1458 1460 1460 1461 1462 1463 1463 1465 1465 1466 1467 1466 1467 1467 1468 1467 1466 1467 1465 1467 1473 1472 1467 1465 1463 1462 1461 1461 1461 1460 1461 1463 1464 1462 1461 1454 1443 1444 1444 1439 1448 1455 1453 1454 1455 1453 1453 1450 1450 1451 1452 1454 1459 1465 1468 1471 1473 1474 1477 1480 1482
1485 1483 1482 1481 1480 1480 1479 1479 1479 1478 1478 1477 1476 1476 1475 1474 1474 1474 1472 1468 1464 1463 1463 1461 1461 1461 1457 1456 1459 1460 1460 1461 1462 1462 1463 1464 1465 1466 1465 1465 1467 1467 1465 1464 1466 1468 1470 1471 1465 1460 1460 1459 1459 1458 1458 1459 1460 1462 1463 1465 1466 1461 1456 1449 1445 1444 1442 1448 1455 1454 1456 1456 1454 1452 1451 1450 1450 1452 1454 1456 1461 1466 1470 1472 1473 1476 1478 1481
1485 1483 1482 1481 1480 1480 1479 1479 1479 1478 1478 1477 1476 1475 1474 1473 1474 1473 1472 1470 1463 1459 1459 1458 1457 1458 1456 1454 1457 1458 1458 1459 1460 1460 1461 1463 1463 1464 1464 1464 1465 1465 1464 1464 1466 1471 1472 1466 1457 1455 1457 1457 1457 1456 1458 1460 1461 1463 1463 1466 1467 1460 1459 1460 1452 1447 1446 1449 1454 1455 1457 1458 1455 1453 1451 1450 1450 1451 1453 1453 1456 1462 1467 1469 1470 1473 1475 1479
1485 1483 1482 1481 1480 1480 1479 1479 1478 1478 1478 1476 1475 1474 1473 1473 1473 1473 1471 1469 1463 1455 1454 1455 1454 1455 1454 1452 1454 1456 1456 1456 1457 1457 1458 1460 1460 1463 1464 1462 1463 1464 1462 1460 1462 1466 1464 1457 1451 1452 1455 1456 1457 1457 1458 1462 1464 1464 1462 1463 1464 1458 1459 1462 1456 1451 1451 1452 1453 1456 1463 1462 1456 1457 1455 1451 1450 1451 1452 1452 1454 1457 1462 1467 1470 1472 1474 1477
1484 1483 1482 1481 1480 1479 1478 1478 1477 1477 1476 1475 1475 1474 1474 1474 1473 1472 1471 1470 1465 1454 1449 1451 1451 1451 1452 1452 1453 1453 1454 1454 1453 1454 1455 1456 1458 1460 1460 1460 1462 1462 1460 1456 1458 1461 1457 1451 1449 1452 1455 1455 1457 1458 1458 1462 1466 1465 1461 1459 1458 1456 1456 1458 1456 1456 1462 1466 1457 1458 1477 1475 1458 1457 1458 1451 1450 1452 1452 1452 1453 1456 1459 1464 1469 1472 1473 1475
1483 1483 1481 1481 1479 1478 1478 1477 1476 1477 1475 1474 1474 1474 1475 1473 1473 1473 1471 1474 1470 1452 1446 1449 1447 1448 1448 1450 1451 1452 1455 1452 1449 1452 1453 1454 1456 1456 1458 1459 1458 1458 1456 1453 1455 1456 1453 1449 1449 1452 1455 1455 1457 1459 1457 1458 1466 1468 1461 1454 1454 1455 1456 1457 1458 1462 1470 1472 1459 1457 1478 1483 1466 1459 1457 1452 1450 1452 1452 1452 1453 1455 1457 1461 1466 1469 1472 1474
1482 1482 1481 1480 1478 1478 1477 1476 1476 1475 1474 1474 1473 1474 1475 1472 1473 1472 1472 1482 1473 1448 1444 1448 1445 1446 1445 1446 1448 1452 1456 1451 1446 1449 1449 1453 1455 1454 1457 1457 1456 1455 1451 1453 1458 1455 1450 1450 1450 1451 1453 1456 1459 1461 1457 1455 1464 1467 1456 1452 1455 1454 1456 1456 1457 1463 1465 1463 1461 1458 1467 1479 1476 1463 1455 1454 1454 1454 1454 1453 1452 1454 1456 1458 1462 1466 1470 1473
1481 1480 1480 1479 1478 1477 1476 1475 1475 1474 1474 1474 1472 1473 1473 1471 1473 1471 1477 1489 1469 1442 1442 1446 1444 1445 1444 1446 1447 1448 1450 1446 1447 1449 1446 1451 1454 1452 1456 1455 1454 1455 1450 1456 1463 1455 1449 1451 1451 1450 1453 1457 1458 1457 1454 1454 1460 1459 1452 1452 1454 1453 1455 1455 1457 1462 1459 1462 1471 1466 1463 1478 1481 1463 1454 1455 1456 1457 1455 1452 1452 1453 1455 1458 1459 1463 1466 1469
1480 1479 1478 1478 1477 1476 1475 1475 1474 1473 1473 1473 1472 1473 1470 1472 1473 1471 1482 1485 1457 1438 1443 1443 1443 1445 1444 1445 1446 1446 1446 1444 1447 1449 1447 1450 1451 1451 1454 1453 1453 1455 1451 1454 1458 1451 1447 1448 1447 1449 1453 1455 1454 1452 1450 1453 1456 1453 1450 1451 1452 1453 1454 1455 1459 1461 1461 1470 1478 1469 1464 1478 1481 1464 1456 1458 1456 1456 1454 1451 1451 1453 1456 1460 1461 1465 1468 1471
1478 1477 1477 1476 1476 1475 1474 1474 1473 1473 1473 1472 1472 1472 1471 1473 1473 1479 1491 1479 1451 1441 1443 1442 1444 1443 1443 1446 1446 1445 1445 1445 1444 1446 1447 1449 1449 1450 1451 1451 1452 1454 1453 1451 1451 1447 1444 1444 1445 1446 1449 1449 1449 1450 1449 1450 1450 1449 1450 1452 1454 1456 1456 1458 1459 1459 1469 1480 1477 1467 1462 1472 1482 1469 1457 1458 1455 1452 1452 1451 1452 1453 1456 1460 1464 1468 1471 1473
1477 1476 1475 1474 1475 1474 1473 1473 1473 1472 1472 1472 1472 1471 1472 1472 1473 1486 1488 1464 1448 1446 1441 1442 1443 1440 1442 1445 1446 1445 1444 1445 1443 1444 1447 1448 1449 1451 1452 1454 1454 1455 1457 1454 1451 1446 1444 1446 1446 1443 1444 1445 1448 1449 1448 1446 1446 1448 1452 1456 1463 1466 1464 1467 1466 1466 1481 1487 1474 1464 1460 1468 1482 1473 1456 1454 1452 1448 1449 1450 1452 1454 1455 1459 1464 1467 1470 1473
1475 1474 1473 1472 1473 1472 1471 1471 1471 1472 1471 1471 1472 1471 1473 1477 1479 1483 1474 1456 1453 1452 1442 1441 1441 1438 1440 1441 1443 1444 1444 1445 1443 1442 1446 1448 1451 1451 1453 1456 1456 1460 1465 1460 1455 1451 1448 1446 1444 1443 1442 1443 1449 1452 1451 1448 1446 1449 1453 1460 1473 1480 1480 1483 1482 1479 1485 1484 1470 1465 1466 1471 1476 1466 1454 1453 1450 1448 1448 1448 1451 1453 1454 1458 1462 1466 1468 1471
1472 1471 1470 1470 1470 1469 1469 1469 1470 1471 1471 1470 1471 1470 1474 1484 1483 1472 1463 1458 1457 1449 1440 1439 1438 1436 1438 1440 1442 1442 1442 1444 1442 1443 1445 1446 1450 1451 1451 1451 1450 1457 1463 1459 1458 1458 1455 1448 1443 1445 1445 1443 1447 1453 1457 1455 1450 1452 1455 1462 1476 1486 1493 1496 1491 1487 1487 1481 1468 1463 1470 1477 1473 1460 1453 1452 1449 1447 1448 1450 1452 1452 1454 1458 1461 1464 1467 1469
1469 1468 1468 1467 1466 1466 1466 1468 1468 1469 1470 1470 1471 1472 1478 1486 1477 1462 1459 1457 1449 1442 1440 1439 1437 1435 1435 1437 1440 1439 1442 1444 1440 1442 1444 1444 1450 1452 1451 1449 1447 1450 1454 1457 1458 1458 1464 1461 1448 1445 1446 1444 1445 1448 1453 1453 1452 1453 1450 1456 1469 1475 1484 1492 1491 1491 1492 1485 1473 1468 1476 1482 1475 1462 1453 1450 1447 1447 1450 1452 1453 1455 1457 1459 1461 1464 1466 1468
1466 1465 1464 1463 1463 1463 1463 1466 1467 1468 1470 1469 1470 1475 1480 1480 1469 1461 1459 1452 1445 1442 1439 1436 1436 1438 1437 1435 1435 1434 1439 1443 1439 1440 1442 1443 1448 1450 1448 1447 1445 1446 1452 1460 1459 1454 1461 1461 1445 1439 1441 1442 1444 1444 1443 1448 1455 1453 1447 1454 1464 1462 1466 1477 1481 1481 1483 1486 1482 1476 1476 1472 1466 1460 1452 1450 1449 1448 1452 1453 1454 1457 1459 1460 1463 1465 1468 1470
1463 1462 1461 1459 1459 1460 1461 1463 1464 1466 1468 1468 1472 1476 1474 1468 1461 1457 1452 1444 1441 1440 1438 1437 1437 1441 1443 1439 1437 1434 1434 1438 1440 1442 1442 1441 1443 1443 1443 1442 1440 1441 1446 1454 1457 1456 1461 1458 1442 1439 1440 1439 1442 1442 1441 1448 1455 1454 1452 1458 1457 1450 1455 1470 1478 1473 1476 1490 1487 1475 1473 1467 1462 1460 1453 1450 1451 1450 1453 1455 1455 1458 1460 1462 1466 1468 1470 1472
1461 1459 1457 1455 1455 1457 1459 1461 1462 1465 1466 1467 1473 1473 1465 1459 1454 1450 1446 1441 1439 1436 1438 1444 1442 1443 1447 1445 1441 1437 1435 1437 1439 1443 1445 1443 1442 1439 1437 1437 1436 1437 1440 1445 1451 1454 1460 1459 1445 1441 1444 1439 1438 1441 1440 1442 1449 1454 1458 1458 1451 1450 1453 1463 1478 1480 1483 1494 1485 1473 1475 1472 1469 1468 1456 1451 1453 1452 1453 1454 1455 1458 1460 1463 1467 1468 1471 1473
1458 1457 1454 1451 1452 1454 1457 1459 1461 1463 1465 1467 1470 1467 1460 1455 1450 1447 1444 1441 1440 1437 1439 1446 1444 1442 1446 1448 1446 1439 1438 1442 1440 1441 1445 1445 1444 1439 1435 1434 1433 1435 1437 1441 1449 1450 1454 1461 1452 1441 1444 1442 1437 1442 1447 1443 1444 1450 1454 1451 1454 1466 1468 1467 1477 1485 1490 1495 1487 1476 1473 1471 1470 1468 1460 1455 1455 1453 1454 1455 1456 1458 1460 1463 1466 1467 1470 1472
1458 1456 1452 1448 1449 1452 1454 1458 1460 1461 1464 1467 1469 1464 1457 1453 1449 1446 1444 1442 1441 1440 1441 1443 1442 1441 1442 1444 1446 1442 1441 1443 1440 1441 1446 1446 1444 1440 1436 1435 1433 1435 1437 1439 1447 1449 1451 1463 1462 1446 1442 1445 1442 1446 1454 1452 1447 1447 1450 1450 1453 1463 1469 1468 1470 1476 1483 1491 1489 1482 1477 1474 1469 1463 1459 1457 1453 1452 1456 1457 1457 1458 1459 1462 1464 1466 1469 1472
1458 1457 1452 1447 1448 1451 1453 1457 1459 1461 1463 1464 1464 1461 1454 1451 1447 1443 1442 1441 1439 1438 1439 1440 1441 1443 1442 1440 1442 1442 1440 1440 1440 1442 1444 1442 1443 1442 1439 1437 1437 1438 1439 1440 1446 1450 1452 1462 1467 1455 1447 1451 1454 1451 1453 1454 1452 1453 1457 1459 1458 1458 1460 1465 1467 1468 1473 1483 1487 1487 1488 1481 1467 1459 1457 1455 1452 1453 1456 1458 1459 1461 1461 1462 1464 1466 1469 1471
1458 1457 1451 1446 1446 1449 1452 1457 1458 1459 1461 1461 1459 1457 1453 1450 1446 1441 1440 1439 1436 1435 1436 1438 1440 1443 1443 1441 1441 1440 1438 1438 1440 1443 1443 1442 1444 1445 1440 1437 1438 1440 1442 1445 1448 1452 1456 1462 1466 1464 1459 1460 1458 1450 1447 1449 1450 1454 1457 1458 1460 1461 1463 1472 1478 1472 1470 1478 1481 1486 1493 1482 1463 1458 1457 1454 1454 1455 1454 1456 1460 1462 1464 1465 1466 1467 1470 1471
1458 1457 1450 1447 1448 1449 1452 1456 1457 1457 1458 1458 1456 1454 1451 1448 1445 1441 1439 1437 1435 1434 1435 1437 1439 1440 1440 1440 1439 1437 1437 1439 1439 1441 1443 1443 1444 1443 1439 1436 1437 1439 1443 1449 1452 1453 1456 1460 1466 1468 1464 1461 1455 1448 1447 1449 1447 1449 1452 1451 1455 1461 1465 1475 1483 1477 1473 1476 1474 1478 1488 1478 1461 1458 1458 1456 1456 1456 1455 1457 1460 1464 1465 1466 1468 1470 1471 1472
1459 1455 1449 1449 1451 1450 1453 1456 1456 1456 1455 1454 1452 1450 1448 1446 1443 1440 1437 1436 1435 1435 1436 1437 1437 1438 1437 1436 1437 1437 1437 1439 1440 1439 1441 1443 1442 1442 1441 1439 1438 1439 1444 1451 1455 1455 1457 1461 1467 1470 1464 1459 1454 1449 1448 1448 1449 1453 1453 1450 1452 1457 1461 1466 1470 1471 1473 1475 1473 1480 1487 1477 1463 1460 1460 1459 1459 1458 1458 1460 1462 1466 1467 1468 1470 1471 1472 1472
1458 1455 1450 1450 1451 1451 1453 1456 1457 1456 1453 1451 1449 1448 1445 1443 1440 1438 1436 1435 1436 1437 1437 1436 1435 1437 1436 1435 1437 1437 1438 1441 1442 1439 1441 1444 1444 1443 1444 1444 1442 1443 1448 1453 1456 1458 1462 1464 1468 1474 1476 1473 1467 1462 1460 1456 1457 1461 1460 1456 1455 1455 1457 1461 1463 1468 1475 1474 1471 1480 1487 1478 1466 1462 1462 1463 1464 1464 1465 1465 1467 1469 1470 1472 1473 1473 1473 1473
1457 1455 1451 1450 1451 1451 1451 1452 1453 1454 1452 1450 1449 1446 1445 1442 1438 1436 1435 1435 1435 1437 1438 1437 1435 1436 1436 1436 1439 1439 1438 1441 1442 1440 1441 1444 1445 1445 1446 1446 1446 1448 1451 1453 1454 1457 1463 1466 1469 1477 1485 1486 1481 1477 1474 1469 1465 1464 1462 1461 1459 1457 1459 1464 1467 1474 1482 1478 1473 1478 1482 1476 1468 1465 1465 1466 1466 1467 1469 1470 1471 1473 1474 1475 1475 1476 1476 1475
1459 1458 1455 1452 1450 1450 1451 1451 1451 1452 1451 1451 1449 1446 1444 1442 1437 1435 1435 1435 1435 1437 1439 1439 1437 1437 1438 1439 1442 1444 1442 1441 1442 1441 1442 1445 1446 1444 1444 1446 1448 1450 1452 1454 1454 1457 1463 1467 1468 1473 1479 1481 1479 1474 1470 1469 1469 1468 1465 1463 1462 1462 1464 1468 1472 1477 1480 1480 1480 1478 1476 1476 1472 1469 1469 1469 1468 1470 1472 1472 1473 1474 1476 1477 1477 1478 1478 1478
1461 1461 1462 1460 1456 1453 1453 1452 1451 1451 1450 1449 1449 1446 1443 1442 1439 1437 1437 1436 1437 1439 1441 1440 1438 1439 1443 1443 1444 1447 1445 1442 1444 1446 1448 1450 1447 1443 1444 1446 1449 1451 1453 1454 1456 1459 1465 1469 1468 1470 1472 1472 1471 1469 1466 1467 1469 1469 1467 1466 1465 1464 1466 1470 1475 1476 1475 1480 1483 1476 1470 1475 1475 1472 1472 1472 1470 1471 1473 1472 1472 1473 1475 1477 1477 1479 1481 1481
1465 1465 1465 1466 1464 1460 1458 1455 1452 1451 1450 1448 1447 1446 1444 1444 1443 1441 1441 1440 1440 1443 1447 1447 1443 1443 1446 1446 1446 1449 1449 1447 1450 1453 1454 1454 1452 1448 1447 1449 1451 1453 1453 1455 1457 1459 1466 1471 1469 1469 1470 1469 1468 1468 1467 1467 1468 1466 1466 1467 1466 1466 1468 1471 1473 1472 1473 1479 1481 1475 1470 1473 1475 1474 1475 1475 1474 1474 1474 1475 1475 1474 1475 1475 1476 1479 1481 1482
1469 1468 1466 1465 1465 1463 1460 1457 1452 1452 1452 1450 1449 1448 1447 1447 1446 1445 1444 1445 1446 1447 1450 1454 1452 1449 1451 1451 1452 1457 1460 1459 1460 1459 1457 1457 1457 1455 1454 1455 1455 1454 1454 1456 1457 1458 1464 1470 1468 1468 1471 1470 1469 1470 1469 1468 1468 1467 1466 1466 1466 1467 1469 1471 1472 1471 1471 1475 1476 1474 1474 1477 1479 1478 1477 1476 1476 1475 1475 1477 1478 1478 1478 1477 1477 1479 1481 1481
1474 1474 1471 1467 1465 1463 1459 1457 1455 1454 1455 1454 1453 1452 1450 1449 1450 1448 1446 1449 1453 1452 1452 1456 1457 1455 1456 1457 1459 1464 1466 1466 1466 1462 1459 1460 1460 1458 1458 1459 1457 1456 1456 1457 1458 1459 1464 1468 1467 1468 1474 1475 1473 1471 1471 1469 1469 1470 1468 1467 1467 1468 1470 1470 1471 1471 1472 1476 1476 1475 1477 1481 1481 1478 1476 1476 1475 1474 1475 1477 1479 1481 1482 1482 1481 1481 1481 1481
1477 1478 1476 1473 1469 1463 1460 1458 1456 1457 1459 1459 1458 1457 1454 1454 1456 1454 1452 1454 1458 1458 1457 1459 1460 1460 1461 1463 1465 1466 1467 1466 1465 1463 1460 1460 1461 1460 1459 1458 1457 1458 1458 1458 1459 1461 1465 1468 1468 1471 1480 1481 1475 1473 1473 1472 1472 1473 1472 1472 1471 1471 1472 1472 1472 1473 1476 1479 1481 1481 1483 1486 1483 1479 1477 1476 1474 1475 1477 1479 1480 1482 1483 1484 1485 1484 1482 1481
1477 1476 1475 1474 1472 1465 1462 1461 1459 1461 1464 1465 1463 1461 1460 1461 1461 1460 1460 1459 1459 1461 1462 1462 1462 1463 1466 1469 1469 1469 1468 1466 1464 1462 1460 1459 1459 1458 1458 1457 1457 1458 1459 1459 1461 1463 1464 1468 1470 1474 1482 1483 1476 1475 1476 1477 1481 1481 1479 1478 1476 1473 1472 1472 1474 1477 1478 1479 1483 1487 1489 1488 1485 1481 1481 1480 1478 1478 1479 1481 1483 1484 1484 1485 1486 1486 1485 1484